Showing default

ATHENA, 46275

Orbit data source: Space-Track

ATHENA, 46275 is a payload satellite owned by PointView Tech (US) in SSO that was launched on Thu, 03 Sep 2020 UTC via a VEGA launch vehicle from the French Guiana (FRGUI). Payload-class satellites include a variety of spacecraft equipped with specific instruments for various scientific and technological missions. These include communications satellites like Starlink; space stations such as the ISS; scientific satellites like the Hubble; Earth observation satellites from companies like Planet Labs, Umbra, and HawkEye 360; GPS; miniature CubeSats for education and research; and military/defense satellites.

Loading next visibility...
Identifier
46275, 2020-061D
Orbit
SSO
Country
Flag of USUS
Related business
Manufacturer
MAXSS/SFLIN
Mission
Operational Commercial Communications
Bus & Motor
SSL-100, Unknown motor
Mass
138 kg wet, 138 kg dry
Launch date (UTC)
2020-09-03 (5 years ago)
Launch vehicle
VEGA
Launch site
French Guiana (FRGUI)
Object type
Payload
Rocket body
Debris
Shape & HBR
Box, Unknown HBR
Radar Cross Section
0.625 m², Medium (>0.1 m² and < 1m²)

Expand to show TLE details & history
Last TLE update: 1 day ago

TLE from 1 day ago
0 ATHENA
1 46275U 20061D   25312.62754899  .00020259  00000-0  47670-3 0  9991
2 46275  97.2246  13.4093 0002383  98.9865 261.1652 15.41993925288084
Epoch: 2025-11-08T15:03Z
TLE epoch observation values (Epoch: 2025-11-08T15:03:40.232Z)
Latitude
-0.00007°
Longitude
99.43723°
Altitude
443.6 km
Speed
7.646 km/s
True Right ascension
00h 53m 38s
True Declination
0° 00' 00"
Sunlit
Object was in full shadow at epoch
Visualization orbit readout
Latitude
Unknown
Longitude
Unknown
Altitude
Unknown
Speed
Unknown
Apparent Right ascension
Unknown
Apparent Declination
Unknown
Sunlit
N/A
Visualization observer readout
Local Sidereal Time
18:19:24
Azimuth
Unknown
Elevation
Unknown
Doppler factor
Unknown
Orbital elements
Apogee altitude
438.778 km
Perigee altitude
435.53 km
Semi-major axis
6,815.291 km
Eccentricity
0.00024
Inclination
97.2246°
RAAN
13.4093°
Arg. of periapsis
98.9865°
True anomaly
261.13822°
Mean anomaly
261.1652°
Eccentric anomaly
261.15171°
Mean motion
3.85759 °/min
Orbital period
93.32 mins
BSTAR
0.0004767
Loading maneuver chart data...
Computing Atmospheric mass density...

Documentation

Showing up to 5 results
|